Regional Weather Roundup
Issued by NWS Little Rock, AR

Home | Current Version | Previous Version | Graphics & Text | Print | Product List | Glossary On
Versions: 1 2 3 4 5 6 7 8 9 10 11 12 13 14 15 16 17 18 19 20 21 22 23 24 25 26 27 28 29 30 31 32
000
ASUS44 KLZK 190905
RWRLZK

WEATHER ROUNDUP FOR ARKANSAS
NATIONAL WEATHER SERVICE LITTLE ROCK AR
400 AM CDT THU OCT 19 2017

NOTE: "FAIR" INDICATES FEW OR NO CLOUDS BELOW 12,000 FEET WITH NO
SIGNIFICANT WEATHER AND/OR OBSTRUCTIONS TO VISIBILITY.

ARZ001-003-010-029-191000-
NORTHWEST ARKANSAS

CITY           SKY/WX    TMP DP  RH WIND       PRES   REMARKS
FAYETTEVILLE   CLOUDY    46  46 100 CALM      30.15R
FORT SMITH     CLOUDY    55  52  89 NE3       30.14S
HARRISON       CLOUDY    56  48  74 CALM      30.15R
BENTONVILLE    PTCLDY    50  47  89 CALM      30.17R
ROGERS         MOCLDY    51  48  89 CALM      30.16R
SILOAM SPGS    PTCLDY    52  46  80 CALM      30.15R
HIGHFILL       PTCLDY    48  45  89 CALM      30.15R
$$

ARZ004-005-016-191000-
NORTH CENTRAL ARKANSAS

CITY           SKY/WX    TMP DP  RH WIND       PRES   REMARKS
BATESVILLE     CLEAR     61  47  59 S7        30.17S
FLIPPIN        PTCLDY    47  45  93 NW3       30.15S
MTN HOME       CLEAR     53  49  86 SE3       30.14S
$$

ARZ040-041-191000-
WEST CENTRAL ARKANSAS

CITY           SKY/WX    TMP DP  RH WIND       PRES   REMARKS
MENA           CLEAR     55  54  94 CALM      30.17S
$$

ARZ009-017-025-026-028-191000-
NORTHEAST ARKANSAS

CITY           SKY/WX    TMP DP  RH WIND       PRES   REMARKS
JONESBORO      PTCLDY    50  47  89 CALM      30.19R
NEWPORT        CLEAR     50  47  89 S6        30.19R
WALNUT RIDGE   PTCLDY    52  46  80 SW3       30.19R
BLYTHEVILLE    PTCLDY    54  48  80 S6        30.20S
$$

ARZ022-023-033-042-044-191000-
CENTRAL ARKANSAS

CITY           SKY/WX    TMP DP  RH WIND       PRES   REMARKS
LITTLE ROCK    CLOUDY    51  50  96 CALM      30.18R
N LITTLE ROCK    N/A     58  49  72 CALM      30.19S
JACKSONVILLE   CLEAR     46  45  96 CALM      30.16F
SEARCY         CLEAR     46  46 100 CALM      30.18S
HOT SPRINGS    CLEAR     52  50  93 CALM      30.17R
RUSSELLVILLE     N/A     50  50 100 CALM      30.16R
CLINTON        FAIR      45  45 100 CALM      30.18S
$$

ARZ036-191000-
EAST ARKANSAS

CITY           SKY/WX    TMP DP  RH WIND       PRES   REMARKS
WEST MEMPHIS   CLEAR     48  47  96 S6        30.18F
$$

ARZ050-053-066-070-073-191000-
SOUTHWEST ARKANSAS

CITY           SKY/WX    TMP DP  RH WIND       PRES   REMARKS
ARKADELPHIA    FAIR      44  43  96 CALM      30.18S
CAMDEN         MOCLDY    46  45  93 CALM      30.17S FOG
TEXARKANA      CLEAR     53  52  96 CALM      30.16S
EL DORADO      CLEAR     48  48 100 CALM      30.17S
DE QUEEN       FOG       47  47 100 CALM      30.15S VSB 1
$$

ARZ056-057-069-191000-
SOUTHEAST ARKANSAS

CITY           SKY/WX    TMP DP  RH WIND       PRES   REMARKS
PINE BLUFF     FOG       47  46  97 CALM      30.18S VSB 1/2
STUTTGART      CLEAR     52  48  86 SE6       30.18S FOG
MONTICELLO     CLEAR     49  46  90 CALM      30.18S

$$






USA.gov is the U.S. government's official web portal to all federal, state and local government web resources and services.